Regional Weather Roundup
Issued by NWS

Home | Current Version | Previous Version | Graphics & Text | Print | Product List | Glossary On
Versions: 1 2 3 4 5 6 7 8 9 10 11 12 13 14 15 16 17 18 19 20 21 22 23 24 25 26 27 28 29 30 31 32 33 34 35 36 37 38 39 40 41 42 43 44 45 46 47 48 49 50
000
ASUS43 KLMK 220402
RWRKY
KENTUCKY REGIONAL WEATHER ROUNDUP
NATIONAL WEATHER SERVICE LOUISVILLE KY
1200 AM EDT WED OCT 22 2014

NOTE "FAIR" INDICATES FEW OR NO CLOUDS BELOW 12,000 FEET
WITH NO SIGNIFICANT WEATHER AND/OR OBSTRUCTIONS TO VISIBILITY.

KYZ001>023-026-027-061>063-070>075-220500-
WESTERN AND SOUTH CENTRAL KENTUCKY

CITY           SKY/WX    TMP DP  RH WIND       PRES   REMARKS
PADUCAH        CLEAR     50  44  80 NE7       30.16R
HENDERSON      CLEAR    N/A N/A N/A CALM      30.19R
OWENSBORO      CLEAR     51  41  69 NE7       30.18S
HOPKINSVILLE   CLEAR     47  44  88 NE7       30.15S
BOWLING GREEN  CLEAR     47  43  86 CALM      30.16S
GLASGOW        NOT AVBL
$$

KYZ024-025-028>034-038-045-046-053-220500-
NORTH CENTRAL KENTUCKY

CITY           SKY/WX    TMP DP  RH WIND       PRES   REMARKS
LOUISVILLE/SDF MOCLDY    54  43  66 VRB7      30.17R
LOUISVILLE/LOU PTCLDY    52  42  69 N5        30.18R
FORT KNOX      MOCLDY    49  43  81 N3        30.15R
$$

KYZ035>037-039>044-047>052-055>060-089>105-220500-
NORTHEAST KENTUCKY

CITY           SKY/WX    TMP DP  RH WIND       PRES   REMARKS
LEXINGTON      CLOUDY    50  42  74 NE10      30.16R
COVINGTON      CLOUDY    48  40  73 NE10      30.17S
FRANKFORT      CLEAR     49  41  74 N5        30.16R
$$

KYZ054-064>069-076>088-106>120-220500-
SOUTHEAST KENTUCKY

CITY           SKY/WX    TMP DP  RH WIND       PRES   REMARKS
JACKSON        CLOUDY    47  42  83 CALM      30.13R
LONDON         CLOUDY    51  40  65 N3        30.13S
SOMERSET       CLOUDY    50  41  71 CALM      30.15S
MIDDLESBORO    NOT AVBL
MONTICELLO     CLOUDY    51  42  71 N5        30.16R
$$




USA.gov is the U.S. government's official web portal to all federal, state and local government web resources and services.